TITAN 3C TRANSTAGE DEB, 1680

Orbit data source: Space-Track

TITAN 3C TRANSTAGE DEB, 1680 is space debris in LEO originally from a launch on Fri, 15 Oct 1965 UTC launched from the Air Force Eastern Test Range (AFETR). Debris objects in space refer to the collection of defunct objects orbiting the Earth. Examples of debris include non-operational satellites, rocket bodies, and fragments generated from explosions, collisions, or faulty payload assembly.

Loading next visibility...
Identifier
1680, 1965-082AT
Orbit
LEO
Country
Flag of USUS
Related business
Manufacturer
Unknown
Mission
Spacecraft
Bus & Motor
Unknown
Mass
Unknown
Launch date (UTC)
1965-10-15 (60 years ago)
Launch vehicle
Unknown
Launch site
Air Force Eastern Test Range (AFETR)
Object type
Payload
Rocket body
Debris
Shape & HBR
Unknown shape, 1.2 m
Radar Cross Section
Large (>1 m²)

Expand to show TLE details & history
Last TLE update: 20 hours ago

TLE from 20 hours ago
0 TITAN 3C TRANSTAGE DEB
1 01680U 65082AT  25307.63955677  .00000531  00000-0  89528-4 0  9996
2 01680  32.2559  64.4160 0020674 353.9544   6.0853 14.65492064180547
Epoch: 2025-11-03T15:20Z
TLE epoch observation values (Epoch: 2025-11-03T15:20:57.704Z)
Latitude
-0.00001°
Longitude
151.0375°
Altitude
659.66 km
Speed
7.538 km/s
True Right ascension
04h 17m 39s
True Declination
0° 00' 00"
Sunlit
Object was in full shadow at epoch
Visualization orbit readout
Latitude
Unknown
Longitude
Unknown
Altitude
Unknown
Speed
Unknown
Apparent Right ascension
Unknown
Apparent Declination
Unknown
Sunlit
N/A
Visualization observer readout
Local Sidereal Time
07:15:46
Azimuth
Unknown
Elevation
Unknown
Doppler factor
Unknown
Orbital elements
Apogee altitude
693.668 km
Perigee altitude
664.488 km
Semi-major axis
7,057.215 km
Eccentricity
0.00207
Inclination
32.2559°
RAAN
64.416°
Arg. of periapsis
353.9544°
True anomaly
6.11048°
Mean anomaly
6.0853°
Eccentric anomaly
6.09788°
Mean motion
3.66094 °/min
Orbital period
98.34 mins
BSTAR
0.000089528

Documentation

Showing up to 5 results
|